Regional Weather Roundup
Issued by NWS

Home | Current Version | Previous Version | Graphics & Text | Print | Product List | Glossary On
Versions: 1 2 3 4 5 6 7 8 9 10 11 12 13 14 15 16 17 18 19 20 21 22 23 24 25 26 27 28
000
ASUS45 KSLC 231910
RWRUT

UTAH REGIONAL WEATHER ROUNDUP
NATIONAL WEATHER SERVICE SALT LAKE CITY UT
100 PM MDT WED APR 23 2014

UTZ001>011-023>025-232000-

NORTHERN UTAH

CITY           SKY/WX    TMP DP  RH WIND       PRES   REMARKS
HILL AFB       CLOUDY    44  19  38 N12       30.05S
LOGAN          CLOUDY    46  23  40 W12       30.02R
OGDEN          MOSUNNY   47  20  34 NW12      30.04S
PROVO AIRPORT  MOSUNNY   48  19  32 NW8       30.05S
SALT LAKE CITY MOSUNNY   47  25  42 W8        30.05R
VERNAL         PTSUNNY   51  20  29 MISG      29.90S
WENDOVER       PTSUNNY   52  14  22 NW13G21   30.04S
HEBER CITY     PTSUNNY   43  18  36 N10       30.01S
WEST JORDAN    SUNNY     46  23  39 NW9G20    30.05S

$$

UTZ012>022-026-027-232000-

SOUTHERN UTAH

CITY           SKY/WX    TMP DP  RH WIND       PRES   REMARKS
BRYCE CANYON   PTSUNNY   45  15  30 NW18G28   30.00R
CEDAR CITY     SUNNY     51  12  21 NE13G24   29.99F
MILFORD        PTSUNNY   54  18  24 N16G22    30.02F
MOAB/CYNLANDS  SUNNY     56  13  18 W24G32    29.89S
PRICE          CLOUDY    48   6  18 N8G25     29.96F
ST GEORGE      PTCLDY    66  21  18 NE7       29.96R

$$

REGIONAL REPORTS     COLORADO/ARIZONA

CITY           SKY/WX    TMP DP  RH WIND       PRES   REMARKS
CRAIG, CO      CLOUDY    42  29  59 VRB3      29.91F
GRAND JUNCTION PTSUNNY   57  17  21 NW21      29.85F
RIFLE          PTSUNNY   56  18  22 NW13G22   29.82F
MONTROSE       PTSUNNY   59  20  22 NW18G29   29.84F
CORTEZ         PTSUNNY   61  12  14 W17G30    29.86R
PAGE, AZ       PTSUNNY   60  17  18 VRB7      29.92F
GRAND CANYON   PTSUNNY   55   8  15 W13G22    29.99R
KINGMAN        SUNNY     67   1   7 N20G28    29.96R
FLAGSTAFF      MOSUNNY   57   6  13 SW21      29.97S

$$

REGIONAL REPORTS    NEVADA/IDAHO/WYOMING

CITY           SKY/WX    TMP DP  RH WIND       PRES   REMARKS
LAS VEGAS, NV  SUNNY     72  12  10 N14G20    29.92F
ELY            SUNNY     44  13  28 SE5       30.05F
ELKO           CLOUDY    44  21  40 SW8       30.06S
POCATELLO, ID  MOSUNNY   49  23  36 W23G30    29.99S
BURLEY         MOSUNNY   47  25  42 W17G25    30.02S
EVANSTON, WY   PTSUNNY   38  17  42 NW20G26   30.00R WCI  28
ROCK SPRINGS   MOSUNNY   42  10  27 W28G39    29.91S

$$



USA.gov is the U.S. government's official web portal to all federal, state and local government web resources and services.